timestamp,wind_dir_avg,wind_spd_avg,wind_spd_max_dir,wind_spd_gust,battery_voltage,lat,long
2023-04-05 00:04:00+00:00,214.0,5.93,216.0,6.57,12.33,47.59359,-54.27349
2023-04-05 00:14:01+00:00,199.0,5.13,216.0,6.28,12.33,47.59359,-54.27349
2023-04-05 00:24:01+00:00,201.0,5.14,215.0,6.57,12.33,47.59359,-54.27349
2023-04-05 00:34:01+00:00,215.0,6.39,215.0,7.11,12.33,47.59359,-54.27349
2023-04-05 00:44:01+00:00,206.0,5.28,218.0,6.66,12.33,47.59359,-54.27349
2023-04-05 00:54:01+00:00,222.0,5.9,223.0,6.7,12.33,47.59359,-54.27349
2023-04-05 01:04:01+00:00,220.0,6.84,224.0,7.55,12.33,47.59359,-54.27349
2023-04-05 01:14:01+00:00,224.0,6.76,219.0,7.4,12.25,47.59359,-54.27349
2023-04-05 01:24:01+00:00,218.0,7.37,216.0,8.22,12.25,47.59359,-54.27349
2023-04-05 01:34:01+00:00,219.0,5.97,217.0,6.68,12.25,47.59359,-54.27349
2023-04-05 01:44:01+00:00,204.0,4.6,226.0,6.11,12.25,47.59359,-54.27349
2023-04-05 01:54:01+00:00,167.0,4.81,180.0,5.51,12.25,47.59359,-54.27349
2023-04-05 02:04:01+00:00,211.0,5.27,219.0,6.52,12.25,47.59359,-54.27349
2023-04-05 02:14:01+00:00,216.0,5.16,,5.95,12.25,47.59359,-54.27349
2023-04-05 02:24:01+00:00,227.0,5.35,,6.69,12.25,47.59359,-54.27349
2023-04-05 02:34:01+00:00,230.0,5.11,,6.44,12.25,47.59359,-54.27349
2023-04-05 02:44:01+00:00,230.0,5.83,,6.81,12.25,47.59359,-54.27349
2023-04-05 02:54:01+00:00,231.0,5.0,,6.11,12.25,47.59359,-54.27349
2023-04-05 03:04:01+00:00,227.0,5.78,,6.88,12.25,47.59359,-54.27349
2023-04-05 03:14:00+00:00,225.0,5.88,221.0,6.43,12.25,47.59359,-54.27349
2023-04-05 03:24:00+00:00,223.0,6.16,219.0,6.88,12.25,47.59359,-54.27349
2023-04-05 03:34:00+00:00,225.0,6.46,226.0,7.12,12.25,47.59359,-54.27349
2023-04-05 03:44:00+00:00,226.0,6.74,233.0,8.37,12.25,47.59359,-54.27349
2023-04-05 03:54:00+00:00,222.0,6.63,219.0,7.15,12.25,47.59359,-54.27349
2023-04-05 04:04:00+00:00,217.0,6.24,217.0,7.12,12.25,47.59359,-54.27349
2023-04-05 04:14:00+00:00,226.0,6.43,231.0,7.61,12.17,47.59359,-54.27349
2023-04-05 04:24:00+00:00,207.0,6.46,214.0,7.47,12.17,47.59359,-54.27349
2023-04-05 04:34:00+00:00,227.0,6.86,226.0,8.66,12.17,47.59359,-54.27349
2023-04-05 04:44:00+00:00,229.0,7.38,230.0,9.03,12.17,47.59359,-54.27349
2023-04-05 04:54:00+00:00,229.0,6.56,230.0,7.72,12.17,47.59359,-54.27349
2023-04-05 05:04:00+00:00,231.0,7.31,234.0,8.6,12.17,47.59359,-54.27349
2023-04-05 05:14:00+00:00,225.0,7.0,227.0,8.55,12.17,47.59359,-54.27349
2023-04-05 05:24:00+00:00,228.0,6.12,222.0,6.89,12.17,47.59359,-54.27349
2023-04-05 05:34:00+00:00,229.0,6.02,230.0,7.38,12.17,47.59359,-54.27349
2023-04-05 05:44:00+00:00,228.0,6.89,230.0,7.84,12.17,47.59359,-54.27349
2023-04-05 05:54:00+00:00,232.0,6.05,230.0,6.69,12.17,47.59359,-54.27349
2023-04-05 06:04:00+00:00,215.0,3.91,229.0,5.51,12.17,47.59359,-54.27349
2023-04-05 06:14:00+00:00,219.0,2.36,238.0,4.09,12.17,47.59359,-54.27349
2023-04-05 06:24:00+00:00,228.0,4.28,239.0,5.15,12.17,47.59359,-54.27349
2023-04-05 06:34:00+00:00,228.0,5.45,229.0,6.08,12.17,47.59359,-54.27349
2023-04-05 06:44:00+00:00,229.0,5.16,233.0,6.04,12.17,47.59359,-54.27349
2023-04-05 06:54:00+00:00,226.0,4.38,235.0,5.22,12.17,47.59359,-54.27349
2023-04-05 07:04:00+00:00,229.0,4.92,232.0,5.56,12.17,47.59359,-54.27349
2023-04-05 07:14:00+00:00,178.0,3.06,229.0,4.57,12.09,47.59359,-54.27349
2023-04-05 07:24:00+00:00,222.0,4.3,227.0,5.29,12.09,47.59359,-54.27349
2023-04-05 07:34:00+00:00,176.0,3.14,224.0,4.68,12.09,47.59359,-54.27349
2023-04-05 07:44:00+00:00,159.0,3.37,159.0,3.83,12.09,47.59359,-54.27349
2023-04-05 07:54:00+00:00,178.0,3.48,220.0,5.43,12.09,47.59359,-54.27349
2023-04-05 08:04:00+00:00,225.0,5.34,225.0,6.23,12.09,47.59359,-54.27349
2023-04-05 08:14:00+00:00,189.0,3.83,221.0,5.41,12.09,47.59359,-54.27349
2023-04-05 08:24:00+00:00,226.0,4.98,227.0,5.61,12.09,47.59359,-54.27349
2023-04-05 08:34:00+00:00,226.0,3.89,232.0,4.88,12.09,47.59359,-54.27349
2023-04-05 08:44:00+00:00,256.0,5.5,265.0,6.38,12.09,47.59359,-54.27349
2023-04-05 08:54:00+00:00,254.0,6.59,251.0,8.05,12.09,47.59359,-54.27349
2023-04-05 09:04:00+00:00,256.0,6.86,256.0,8.45,12.09,47.59359,-54.27349
2023-04-05 09:14:00+00:00,260.0,7.39,258.0,8.19,12.09,47.59359,-54.27349
2023-04-05 09:24:00+00:00,254.0,6.91,259.0,8.25,12.09,47.59359,-54.27349
2023-04-05 09:34:00+00:00,258.0,6.0,257.0,6.88,12.09,47.59359,-54.27349
2023-04-05 09:44:00+00:00,262.0,6.45,270.0,7.68,12.09,47.59359,-54.27349
2023-04-05 09:54:00+00:00,260.0,6.02,263.0,7.28,12.09,47.59359,-54.27349
2023-04-05 10:04:00+00:00,253.0,6.16,254.0,7.87,12.09,47.59359,-54.27349
2023-04-05 10:14:00+00:00,248.0,5.52,241.0,6.33,12.33,47.59359,-54.27349
2023-04-05 10:24:00+00:00,255.0,5.64,262.0,6.46,12.33,47.59359,-54.27349
2023-04-05 10:34:00+00:00,257.0,6.61,255.0,7.36,12.33,47.59359,-54.27349
2023-04-05 10:44:00+00:00,267.0,5.37,268.0,7.15,12.33,47.59359,-54.27349
2023-04-05 10:54:00+00:00,272.0,7.41,276.0,8.28,12.33,47.59359,-54.27349
2023-04-05 11:04:00+00:00,265.0,7.65,269.0,9.0,12.33,47.59359,-54.27349
2023-04-05 11:14:00+00:00,259.0,7.05,249.0,9.07,13.92,47.59359,-54.27349
2023-04-05 11:24:00+00:00,265.0,9.14,273.0,10.99,13.92,47.59359,-54.27349
2023-04-05 11:34:00+00:00,269.0,9.58,280.0,11.07,13.92,47.59359,-54.27349
2023-04-05 11:44:00+00:00,279.0,10.34,285.0,11.78,13.92,47.59359,-54.27349
2023-04-05 11:54:00+00:00,270.0,9.78,280.0,12.67,13.92,47.59359,-54.27349
2023-04-05 12:04:00+00:00,277.0,12.22,274.0,15.62,13.92,47.59359,-54.27349
2023-04-05 12:14:00+00:00,288.0,16.51,288.0,19.94,13.29,47.59359,-54.27349
2023-04-05 12:24:00+00:00,284.0,17.71,290.0,19.86,13.29,47.59359,-54.27349
2023-04-05 12:34:00+00:00,283.0,15.42,286.0,18.36,13.29,47.59359,-54.27349
2023-04-05 12:44:00+00:00,287.0,16.19,297.0,18.97,13.29,47.59359,-54.27349
2023-04-05 12:54:00+00:00,296.0,12.18,303.0,13.54,13.29,47.59359,-54.27349
2023-04-05 13:04:00+00:00,283.0,15.7,289.0,18.52,13.29,47.59359,-54.27349
2023-04-05 13:14:00+00:00,288.0,11.52,284.0,16.21,14.32,47.59359,-54.27349
2023-04-05 13:24:00+00:00,280.0,11.52,284.0,13.08,14.32,47.59359,-54.27349
2023-04-05 13:34:00+00:00,292.0,11.14,303.0,13.66,14.32,47.59359,-54.27349
2023-04-05 13:44:00+00:00,275.0,10.12,266.0,13.13,14.32,47.59359,-54.27349
2023-04-05 13:54:00+00:00,277.0,13.09,280.0,14.69,14.32,47.59359,-54.27349
2023-04-05 14:04:00+00:00,301.0,12.23,306.0,14.95,14.32,47.59359,-54.27349
2023-04-05 14:14:00+00:00,283.0,13.84,285.0,18.4,13.68,47.59359,-54.27349
2023-04-05 14:24:00+00:00,275.0,14.12,275.0,16.72,13.68,47.59359,-54.27349
2023-04-05 14:34:00+00:00,276.0,13.05,281.0,15.42,13.68,47.59359,-54.27349
2023-04-05 14:44:00+00:00,279.0,10.76,278.0,12.03,13.68,47.59359,-54.27349
2023-04-05 14:54:00+00:00,277.0,10.38,282.0,11.93,13.68,47.59359,-54.27349
2023-04-05 15:04:00+00:00,286.0,11.99,281.0,17.68,13.68,47.59359,-54.27349
2023-04-05 15:14:00+00:00,283.0,11.66,288.0,12.53,13.76,47.59359,-54.27349
2023-04-05 15:24:00+00:00,284.0,10.69,290.0,11.92,13.76,47.59359,-54.27349
2023-04-05 15:34:00+00:00,276.0,10.37,277.0,11.56,13.76,47.59359,-54.27349
2023-04-05 15:44:00+00:00,286.0,10.27,286.0,12.06,13.76,47.59359,-54.27349
2023-04-05 15:54:00+00:00,288.0,9.33,296.0,10.9,13.76,47.59359,-54.27349
2023-04-05 16:04:00+00:00,286.0,8.62,285.0,10.61,13.76,47.59359,-54.27349
2023-04-05 16:14:00+00:00,302.0,10.16,301.0,11.94,13.37,47.59359,-54.27349
2023-04-05 16:24:00+00:00,318.0,14.53,318.0,17.03,13.37,47.59359,-54.27349
2023-04-05 16:34:00+00:00,319.0,12.83,320.0,14.25,13.37,47.59359,-54.27349
2023-04-05 16:44:00+00:00,316.0,15.26,310.0,19.49,13.37,47.59359,-54.27349
2023-04-05 16:54:00+00:00,317.0,13.44,319.0,16.22,13.37,47.59359,-54.27349
2023-04-05 17:04:00+00:00,320.0,14.31,320.0,17.04,13.37,47.59359,-54.27349
2023-04-05 17:14:00+00:00,323.0,14.26,327.0,16.65,13.84,47.59359,-54.27349
2023-04-05 17:24:00+00:00,335.0,16.11,340.0,20.14,13.84,47.59359,-54.27349
2023-04-05 17:34:00+00:00,342.0,14.3,331.0,16.04,13.84,47.59359,-54.27349
2023-04-05 17:44:00+00:00,340.0,16.41,335.0,19.72,13.84,47.59359,-54.27349
2023-04-05 17:54:00+00:00,330.0,14.19,329.0,16.35,13.84,47.59359,-54.27349
2023-04-05 18:04:00+00:00,332.0,15.31,332.0,18.96,13.84,47.59359,-54.27349
2023-04-05 18:14:00+00:00,328.0,17.24,330.0,19.92,14.48,47.59359,-54.27349
2023-04-05 18:24:00+00:00,329.0,13.37,330.0,16.52,14.48,47.59359,-54.27349
2023-04-05 18:34:00+00:00,334.0,16.62,330.0,19.63,14.48,47.59359,-54.27349
2023-04-05 18:44:00+00:00,328.0,15.13,326.0,17.02,14.48,47.59359,-54.27349
2023-04-05 18:54:00+00:00,336.0,15.4,332.0,19.31,14.48,47.59359,-54.27349
2023-04-05 19:04:00+00:00,339.0,13.24,332.0,15.64,14.48,47.59359,-54.27349
2023-04-05 19:14:00+00:00,321.0,13.52,322.0,15.1,13.84,47.59359,-54.27349
2023-04-05 19:24:00+00:00,331.0,13.8,320.0,16.15,13.84,47.59359,-54.27349
2023-04-05 19:34:00+00:00,318.0,13.2,317.0,14.09,13.84,47.59359,-54.27349
2023-04-05 19:44:00+00:00,327.0,12.57,332.0,14.99,13.84,47.59359,-54.27349
2023-04-05 19:54:00+00:00,326.0,12.52,321.0,14.83,13.84,47.59359,-54.27349
2023-04-05 20:04:00+00:00,316.0,12.39,321.0,14.82,13.84,47.59359,-54.27349
2023-04-05 20:14:00+00:00,308.0,11.49,312.0,13.41,13.68,47.59359,-54.27349
2023-04-05 20:24:00+00:00,320.0,14.07,317.0,15.71,13.68,47.59359,-54.27349
2023-04-05 20:34:00+00:00,316.0,11.98,318.0,14.17,13.68,47.59359,-54.27349
2023-04-05 20:44:00+00:00,309.0,11.68,306.0,13.62,13.68,47.59359,-54.27349
2023-04-05 20:54:00+00:00,317.0,13.55,321.0,15.67,13.68,47.59359,-54.27349
2023-04-05 21:04:00+00:00,317.0,13.0,321.0,14.44,13.68,47.59359,-54.27349
2023-04-05 21:14:00+00:00,327.0,13.14,320.0,15.18,13.44,47.59359,-54.27349
2023-04-05 21:24:00+00:00,330.0,11.02,313.0,13.01,13.44,47.59359,-54.27349
2023-04-05 21:34:00+00:00,342.0,11.29,342.0,12.81,13.44,47.59359,-54.27349
2023-04-05 21:44:00+00:00,323.0,11.55,322.0,13.76,13.44,47.59359,-54.27349
2023-04-05 21:54:00+00:00,330.0,9.19,322.0,11.37,13.44,47.59359,-54.27349
2023-04-05 22:04:00+00:00,309.0,10.55,306.0,12.47,13.44,47.59359,-54.27349
2023-04-05 22:14:00+00:00,310.0,11.08,307.0,12.94,13.05,47.59359,-54.27349
2023-04-05 22:24:00+00:00,302.0,9.01,299.0,11.62,13.05,47.59359,-54.27349
2023-04-05 22:34:00+00:00,328.0,8.71,311.0,12.95,13.05,47.59359,-54.27349
2023-04-05 22:44:00+00:00,310.0,6.42,296.0,10.37,13.05,47.59359,-54.27349
2023-04-05 22:54:00+00:00,313.0,4.95,298.0,8.52,13.05,47.59359,-54.27349
2023-04-05 23:04:00+00:00,306.0,7.88,294.0,10.94,13.05,47.59359,-54.27349
2023-04-05 23:14:00+00:00,317.0,7.57,302.0,10.73,12.41,47.59359,-54.27349
2023-04-05 23:24:00+00:00,327.0,8.92,319.0,11.45,12.41,47.59359,-54.27349
2023-04-05 23:34:00+00:00,328.0,8.73,323.0,10.87,12.41,47.59359,-54.27349
2023-04-05 23:44:00+00:00,322.0,9.02,321.0,11.19,12.41,47.59359,-54.27349
2023-04-05 23:54:00+00:00,326.0,8.63,320.0,10.54,12.41,47.59359,-54.27349
